Weather reports worldwide

Advertisment
Geneve-Cointrin, Switzerland (6700): temperature & dewpoint: 22.02.2017 15:00:00 - 28.02.2017 15:00:00 (CET)Geneve-Cointrin, Switzerland (6700): wind speed & gusts: 22.02.2017 15:00:00 - 28.02.2017 15:00:00 (CET)Geneve-Cointrin, Switzerland (6700): wind direction: 22.02.2017 15:00:00 - 28.02.2017 15:00:00 (CET)Geneve-Cointrin, Switzerland (6700): reduced air pressure: 22.02.2017 15:00:00 - 28.02.2017 15:00:00 (CET)Geneve-Cointrin, Switzerland (6700): visibility: 22.02.2017 15:00:00 - 28.02.2017 15:00:00 (CET)Geneve-Cointrin, Switzerland (6700): sunshine duration: 22.02.2017 15:00:00 - 28.02.2017 15:00:00 (CET)Geneve-Cointrin, Switzerland (6700): precipitation: 22.02.2017 15:00:00 - 28.02.2017 15:00:00 (CET)
Date & Time tt [°C] td [°C] ff [km/h] ff [kn] fx [km/h] fx [kn] dd ppp [hPa] vv [km] sd [min] rr [mm]
28.02.2017 15:00:00 5,4 2,4 32 17 87 47 SW 1001,2 - 0 2,6
28.02.2017 14:00:00 11,7 1,4 46 25 81 44 SSW 996,7 - 0 0,0
28.02.2017 13:00:00 11,4 1,8 40 22 - - SSW 998,1 50 0 0,0
28.02.2017 12:00:00 11,1 1,7 45 24 78 42 SSW 999,3 - 0 0,0
28.02.2017 11:00:00 10,6 2,6 34 18 51 28 SSW 1000,1 - 0 0,0
28.02.2017 10:00:00 9,2 3,3 23 12 - - SSW 1001,4 35 0 0,0
28.02.2017 09:00:00 8,5 3,6 25 13 35 19 SSW 1002,6 - 0 0,0
28.02.2017 08:00:00 7,2 4,5 20 11 29 16 SW 1003,3 - 0 0,1
28.02.2017 07:00:00 6,2 4,5 11 6 - - SSW 1003,9 18 0 0,1
28.02.2017 06:00:00 6,6 4,0 15 8 48 26 SW 1003,9 - 0 0,1
28.02.2017 05:00:00 6,7 4,2 28 15 50 27 SSW 1003,2 - 0 0,5
28.02.2017 04:00:00 5,8 3,9 32 18 - - SW 1002,8 - 0 8,8
28.02.2017 03:00:00 8,9 5,4 43 23 76 41 SSW 1001,3 - 0 0,9
28.02.2017 02:00:00 10,0 5,1 29 16 56 30 SW 1001,6 - 0 0,4
28.02.2017 01:00:00 10,1 5,5 29 15 - - SW 1002,0 - 0 0,4
28.02.2017 00:00:00 12,3 2,4 31 17 51 28 SW 1002,2 - 0 0,0
27.02.2017 23:00:00 12,4 2,7 29 16 53 29 SW 1003,2 - 0 0,0
27.02.2017 22:00:00 12,3 3,4 36 20 - - SW 1004,3 30 0 0,0
27.02.2017 21:00:00 12,4 3,1 32 17 56 30 SSW 1004,9 - 0 0,0
27.02.2017 20:00:00 12,6 3,2 30 16 50 27 SSW 1005,3 - 0 0,0
27.02.2017 19:00:00 13,4 2,5 37 20 - - SW 1005,1 40 0 0,0
27.02.2017 18:00:00 14,1 1,8 25 13 51 28 SSW 1005,0 - 8 0,0
27.02.2017 17:00:00 15,5 2,1 34 18 53 28 SW 1005,0 - 34 0,0
27.02.2017 16:00:00 15,9 2,3 34 18 - - SW 1005,1 40 59 0,0
27.02.2017 15:00:00 16,1 1,6 37 20 55 30 SSW 1005,6 - 60 0,0
27.02.2017 14:00:00 15,2 1,9 31 17 58 31 S 1007,1 - 60 0,0
27.02.2017 13:00:00 14,5 1,5 31 17 - - SSW 1008,7 35 60 0,0
27.02.2017 12:00:00 13,3 1,1 21 12 37 20 SW 1010,3 - 60 0,0
27.02.2017 11:00:00 11,5 1,0 16 9 31 17 WSW 1011,1 - 60 0,0
27.02.2017 10:00:00 8,3 0,6 6 3 - - S 1012,1 35 51 0,0
27.02.2017 09:00:00 4,1 -0,6 4 2 7 4 WNW 1013,6 - 3 0,0
27.02.2017 08:00:00 2,6 -1,1 1 1 4 2 NNW 1014,2 - 0 0,0
27.02.2017 07:00:00 2,0 -1,5 3 2 - - NNW 1014,7 35 0 0,0
27.02.2017 06:00:00 0,0 -2,9 1 1 9 5 WSW 1015,5 - 0 0,0
27.02.2017 05:00:00 0,0 -2,6 2 1 9 5 WSW 1015,9 - 0 0,0
27.02.2017 04:00:00 -0,2 -3,0 3 2 - - W 1016,4 - 0 0,0
27.02.2017 03:00:00 0,9 -2,5 2 1 7 4 NW 1016,7 - 0 0,0
27.02.2017 02:00:00 0,6 -2,9 5 3 9 5 SSW 1017,3 - 0 0,0
27.02.2017 01:00:00 1,5 -2,0 3 1 - - W 1017,7 - 0 0,0
27.02.2017 00:00:00 2,2 -1,8 3 1 9 5 N 1018,0 - 0 0,0
26.02.2017 23:00:00 2,7 -1,4 3 1 7 4 SW 1018,2 - 0 0,0
26.02.2017 22:00:00 5,0 -0,6 2 1 - - NNE 1017,8 60 0 0,0
26.02.2017 21:00:00 7,5 -0,8 4 2 13 7 N 1017,6 - 0 0,0
26.02.2017 20:00:00 7,8 0,7 6 3 9 5 NNE 1017,5 - 0 0,0
26.02.2017 19:00:00 9,0 0,9 6 3 - - NNE 1017,3 70 0 0,0
26.02.2017 18:00:00 11,1 1,0 6 3 18 10 NNE 1016,6 - 2 0,0
26.02.2017 17:00:00 13,0 0,2 9 5 17 9 SSE 1016,0 - 2 0,0
26.02.2017 16:00:00 15,0 -2,2 8 5 - - SW 1015,9 70 7 0,0
26.02.2017 15:00:00 15,1 -2,2 10 6 25 14 SW 1016,5 - 21 0,0
26.02.2017 14:00:00 14,3 -1,1 16 9 28 15 WSW 1017,6 - 48 0,0
26.02.2017 13:00:00 12,8 -0,4 11 6 - - SW 1018,9 70 60 0,0
26.02.2017 12:00:00 10,0 -0,8 3 2 12 6 SW 1020,7 - 60 0,0
26.02.2017 11:00:00 7,8 -1,4 3 1 11 6 WNW 1021,4 - 54 0,0
26.02.2017 10:00:00 5,7 -1,3 3 1 - - W 1021,8 50 32 0,0
26.02.2017 09:00:00 3,5 -1,1 1 1 8 4 W 1022,2 - 7 0,0
26.02.2017 08:00:00 -0,8 -2,8 3 2 8 4 S 1022,7 - 0 0,0
26.02.2017 07:00:00 -1,3 -3,1 3 2 - - WNW 1022,4 40 0 0,0
26.02.2017 06:00:00 -0,9 -3,0 3 2 9 5 SW 1022,5 - 0 0,0
26.02.2017 05:00:00 -0,9 -3,0 6 3 10 5 WNW 1022,7 - 0 0,0
26.02.2017 04:00:00 -1,3 -3,1 6 3 - - W 1023,1 - 0 0,0
26.02.2017 03:00:00 -1,0 -3,3 4 2 6 3 WNW 1022,9 - 0 0,0
26.02.2017 02:00:00 -0,4 -3,4 4 2 8 4 W 1023,0 - 0 0,0
26.02.2017 01:00:00 -0,1 -3,3 5 3 - - W 1022,9 - 0 0,0
26.02.2017 00:00:00 0,2 -3,2 3 1 6 4 W 1022,8 - 0 0,0
25.02.2017 23:00:00 0,9 -2,8 1 0 6 4 SSW 1022,9 - 0 0,0
25.02.2017 22:00:00 2,1 -2,0 3 2 - - WNW 1022,8 35 0 0,0
25.02.2017 21:00:00 3,4 -1,9 4 2 6 3 NW 1022,6 - 0 0,0
25.02.2017 20:00:00 4,1 -2,6 4 2 6 4 W 1022,2 - 0 0,0
25.02.2017 19:00:00 5,4 -2,3 4 2 - - NNW 1021,6 40 0 0,0
25.02.2017 18:00:00 7,4 -2,7 6 3 17 9 N 1020,9 - 48 0,0
25.02.2017 17:00:00 9,0 -2,6 11 6 21 11 NNE 1020,7 - 60 0,0
25.02.2017 16:00:00 9,3 -2,7 13 7 - - NNE 1020,9 45 60 0,0
25.02.2017 15:00:00 8,7 -2,6 13 7 23 13 ENE 1021,5 - 60 0,0
25.02.2017 14:00:00 8,4 -1,7 9 5 24 13 N 1021,9 - 60 0,0
25.02.2017 13:00:00 6,7 -0,8 12 7 - - NE 1023,0 35 60 0,0
25.02.2017 12:00:00 5,8 -0,8 12 7 26 14 ENE 1023,5 - 60 0,0
25.02.2017 11:00:00 5,7 -0,3 15 8 26 14 ENE 1023,4 - 58 0,0
25.02.2017 10:00:00 4,2 -0,4 16 9 - - ENE 1022,9 35 11 0,0
25.02.2017 09:00:00 3,4 -0,8 20 11 40 22 NNE 1022,4 - 17 0,0
25.02.2017 08:00:00 3,0 -0,7 16 8 34 18 NNE 1022,0 - 0 0,0
25.02.2017 07:00:00 2,9 -0,9 20 11 - - NNE 1021,7 45 0 0,0
25.02.2017 06:00:00 2,5 -2,0 10 5 26 14 N 1021,4 - 0 0,0
25.02.2017 05:00:00 2,3 -2,0 11 6 21 12 N 1021,1 - 0 0,0
25.02.2017 04:00:00 1,3 -3,2 9 5 - - NNE 1021,5 - 0 0,0
25.02.2017 03:00:00 -1,4 -4,5 5 3 11 6 NNW 1022,5 - 0 0,0
25.02.2017 02:00:00 1,0 -3,8 7 4 11 6 NNE 1022,0 - 0 0,0
25.02.2017 01:00:00 2,1 -3,5 4 2 - - NNW 1021,7 - 0 0,0
25.02.2017 00:00:00 2,2 -3,2 10 5 18 10 N 1021,5 - 0 0,0
24.02.2017 23:00:00 3,8 -1,4 12 7 21 12 NNE 1021,0 - 0 0,0
24.02.2017 22:00:00 4,7 -1,4 10 5 - - NNE 1020,4 60 0 0,0
24.02.2017 21:00:00 3,4 -3,1 6 3 11 6 N 1020,3 - 0 0,0
24.02.2017 20:00:00 5,1 -3,7 8 4 29 16 N 1019,3 - 0 0,0
24.02.2017 19:00:00 6,3 -3,6 12 6 - - NNW 1018,3 60 0 0,0
24.02.2017 18:00:00 6,6 -2,4 11 6 29 16 N 1017,2 - 6 0,0
24.02.2017 17:00:00 7,2 -2,4 10 5 34 18 NNW 1016,4 - 0 0,0
24.02.2017 16:00:00 7,9 -2,7 11 6 - - NNW 1015,6 60 9 0,0
24.02.2017 15:00:00 9,5 -2,5 12 7 26 14 NW 1014,7 - 21 0,0
24.02.2017 14:00:00 9,8 -3,6 7 4 26 14 N 1014,5 - 12 0,0
24.02.2017 13:00:00 8,8 -3,3 13 7 - - NNW 1015,1 60 10 0,0
24.02.2017 12:00:00 8,8 -3,4 10 5 24 13 NNW 1015,3 - 0 0,0
24.02.2017 11:00:00 8,0 -2,5 11 6 25 13 NNW 1015,5 - 7 0,0
24.02.2017 10:00:00 9,0 -2,4 6 3 - - N 1014,8 60 21 0,0
24.02.2017 09:00:00 8,3 -3,0 8 4 21 11 W 1014,4 - 0 0,0
24.02.2017 08:00:00 8,1 0,3 3 1 18 10 WNW 1013,9 - 0 0,0
24.02.2017 07:00:00 8,0 0,6 6 4 - - N 1013,4 50 0 0,0
24.02.2017 06:00:00 8,5 -0,3 16 9 37 20 W 1013,0 - 0 0,0
24.02.2017 05:00:00 8,0 1,9 7 4 29 16 N 1012,8 - 0 0,0
24.02.2017 04:00:00 9,9 4,6 21 12 - - SW 1011,9 - 0 0,0
24.02.2017 03:00:00 10,1 4,9 19 10 40 21 SW 1012,0 - 0 0,0
24.02.2017 02:00:00 10,5 4,9 17 9 35 19 SW 1011,7 - 0 0,0
24.02.2017 01:00:00 10,4 4,9 18 10 - - SW 1011,6 - 0 0,0
24.02.2017 00:00:00 11,6 5,2 22 12 33 18 S 1011,3 - 0 0,0
23.02.2017 23:00:00 12,6 5,0 21 11 41 22 W 1010,6 - 0 0,0
23.02.2017 22:00:00 14,2 1,9 20 11 - - WSW 1009,6 40 0 0,0
23.02.2017 21:00:00 15,0 1,1 18 10 29 15 SW 1008,8 - 0 0,0
23.02.2017 20:00:00 15,5 1,9 16 8 27 14 S 1008,3 - 0 0,0
23.02.2017 19:00:00 15,7 0,8 16 8 - - S 1007,7 40 0 0,0
23.02.2017 18:00:00 16,5 -0,8 17 9 30 16 SSW 1007,4 - 0 0,0
23.02.2017 17:00:00 17,3 -1,0 23 12 49 26 SSW 1007,2 - 15 0,0
23.02.2017 16:00:00 18,5 -1,7 34 18 - - SSW 1007,7 40 35 0,0
23.02.2017 15:00:00 19,3 -2,2 36 20 51 28 SSW 1008,0 - 58 0,0
23.02.2017 14:00:00 18,9 -4,3 36 20 53 28 SW 1009,1 - 45 0,0
23.02.2017 13:00:00 17,3 -2,7 35 19 - - SW 1010,8 40 52 0,0
23.02.2017 12:00:00 17,4 -2,7 32 18 49 26 SW 1011,5 - 60 0,0
23.02.2017 11:00:00 14,0 -1,0 15 8 26 14 SW 1012,6 - 60 0,0
23.02.2017 10:00:00 12,0 -0,6 13 7 - - WSW 1013,4 40 60 0,0
23.02.2017 09:00:00 6,2 2,0 7 4 17 9 SW 1015,2 - 47 0,0
23.02.2017 08:00:00 3,3 0,3 2 1 10 5 SW 1016,2 - 0 0,0
23.02.2017 07:00:00 1,5 -0,1 8 4 - - SW 1016,8 20 0 0,0
23.02.2017 06:00:00 1,1 0,2 1 1 8 5 W 1017,4 - 0 0,0
23.02.2017 05:00:00 2,5 1,5 5 3 11 6 WNW 1017,7 - 0 0,0
23.02.2017 04:00:00 2,1 1,1 1 0 - - SW 1018,3 - 0 0,0
23.02.2017 03:00:00 2,7 1,4 1 1 5 3 NNE 1019,0 - 0 0,0
23.02.2017 02:00:00 3,3 1,3 2 1 3 2 NNW 1019,3 - 0 0,0
23.02.2017 01:00:00 5,3 3,1 1 1 - - WNW 1019,4 - 0 0,0
23.02.2017 00:00:00 5,9 3,3 2 1 8 5 W 1019,3 - 0 0,0
22.02.2017 23:00:00 7,6 3,6 3 2 6 3 S 1019,1 - 0 0,0
22.02.2017 22:00:00 9,3 4,2 3 2 - - N 1019,0 50 0 0,0
22.02.2017 21:00:00 10,6 4,4 7 4 13 7 SW 1019,1 - 0 0,0
22.02.2017 20:00:00 11,2 4,6 9 5 19 11 WSW 1019,2 - 0 0,0
22.02.2017 19:00:00 12,0 5,0 11 6 - - SW 1018,9 60 0 0,0
22.02.2017 18:00:00 13,5 5,5 16 9 29 15 SW 1018,5 - 20 0,0
22.02.2017 17:00:00 15,6 5,5 22 12 34 19 SW 1018,0 - 60 0,0
22.02.2017 16:00:00 15,2 5,5 23 12 - - SW 1018,4 70 60 0,0
22.02.2017 15:00:00 14,7 4,0 26 14 38 20 SSW 1019,0 - 60 0,0

tt = temperature
td = dewpoint
ff = wind speed
fx = gusts
dd = wind direction
ppp = reduced air pressure
vv = visibility
sd = sunshine duration
rr = precipitation

Next stations